Weather in Sestriere

Italy     44°57′28″N   6°52′34″E
В апреле 2022 года жителям России запретили посещать сайт meteo.paraplan.net по решению Генеральной прокуратуры. Аудитория сайта уменьшилась в 10 раз. Владельцы сайта не видят смысла в поддержке погодного сервера в таких условиях. Сайт будет закрыт в октябре.
temp.,
°C
wind,
m/s
gust,
m/s
humid.,
%
clouds,
%
prec.,
mm/h
press.,
hPa
HPBL,
m
4 october, tue
tue423:00+6w227411 0.0 102320
02:00+6w227694 0.0 102318
05:00+5w2273100 0.0 102222
08:00+5wsw226810 0.0 102324
11:00+13e11475 0.0 1022545
14:00+16e234012 0.0 10211121
17:00+13e226194 0.0 1021593
20:00+7ssw11925 0.0 102410
5 october, wed
wed523:00+7wsw22740 0.0 102614
02:00+5wsw11731 0.0 102711
05:00+5wsw11756 0.0 102610
08:00+5wsw227338 0.0 102714
11:00+12e11510 0.0 1026487
14:00+15e32536 0.0 1024853
17:00+12e227940 0.0 1024363
20:00+8ese009661 0.0 102726
6 october, thu
thu623:00+7sw21912 0.0 102817
02:00+6wsw22900 0.0 102934
05:00+5w33910 0.0 102843
08:00+5w33910 0.0 102945
11:00+13ne01534 0.0 1027579
14:00+15e32555 0.0 10261137
17:00+13e327370 0.1 1027774
20:00+9e129687 0.1 1030133
7 october, fri
fri723:00+9ene1296100 0.1 1030143
02:00+8ene129897 0.4 1030145
05:00+8e119485 0.2 1028193
08:00+8ene119184 0.4 1027134
11:00+10e118262 0.1 1027494
14:00+13e226463 0.1 10241102
17:00+11e228084 0.1 1023527
20:00+8e119376 0.2 1025114
8 october, sat
sat823:00+7wsw119348 0.0 102513
02:00+7wsw228939 0.0 102439
05:00+6wsw339399 0.0 102445
08:00+5w22938 0.0 102439
11:00+12nnw016048 0.0 1022716
14:00+15e224936 0.0 10201511
17:00+11e3278100 0.9 1021431
20:00+8ese119685 1.9 102323